Location: Unspecified
(0.0000°N, 0.0000°E)
Time: 16:03:55
(UTC+01:00)

ARIANE 5 R/B - Visible Passes

Search period start: 11 February 2016 00:00
Search period end: 21 February 2016 00:00
Orbit: 560 x 35567 km, 5.3° (Epoch: 11 February)

Date Brightness Start Highest point End Pass type
(mag) Time Alt. Az. Time Alt. Az. Time Alt. Az.
12 Feb 9.4 04:11:31 10° W 05:31:19 23° W 08:09:04 10° W visible
13 Feb 7.5 00:37:38 10° W 02:38:40 71° WNW 10:33:52 10° ESE visible
13 Feb 7.4 21:31:45 10° W 21:49:27 81° N 07:31:11 10° E visible
14 Feb 4.9 18:31:11 10° W 18:36:27 85° N 19:19:46 10° E visible
16 Feb 9.1 02:57:06 10° W 04:46:20 35° W 08:52:00 10° W visible
16 Feb 8.2 23:37:19 10° W 01:57:04 83° NW 09:35:54 10° E visible
17 Feb 6.7 20:33:38 10° W 20:45:45 81° N 06:31:26 10° E visible
18 Feb 10.0 22:06:17 10° E 01:37:17 30° E 03:06:47 10° E visible
20 Feb 6.5 01:50:22 10° W 04:05:12 48° W 11:38:29 10° ESE visible
